Regional Weather Roundup
Issued by NWS

Home | Current Version | Previous Version | Text Only | Print | Product List | Glossary Off
Versions: 1 2 3 4 5 6 7 8 9 10 11 12 13 14 15 16 17 18 19 20 21 22 23 24 25 26 27 28 29 30 31 32 33 34 35 36 37 38 39 40 41 42 43 44 45 46 47 48 49 50

000
ASUS43 KMKX 210721
RWRWI

WISCONSIN REGIONAL WEATHER ROUNDUP
NATIONAL WEATHER SERVICE MILWAUKEE/SULLIVAN WI
100 AM CST SUN DEC 21 2014

NOTE: "FAIR" INDICATES FEW OR NO CLOUDS BELOW 12,000 FEET WITH NO
SIGNIFICANT WEATHER AND/OR OBSTRUCTIONS TO VISIBILITY.

WIZ001-002-006>008-014>016-023>028-210800-
NORTHWEST WISCONSIN

CITY           SKY/WX    TMP DP  RH WIND       PRES   REMARKS
SUPERIOR ARPT  CLOUDY    32  28  84 SW7       30.05F WCI  26
ASHLAND        CLOUDY    31  26  82 S13G18    30.08F WCI  21
HAYWARD        CLOUDY    30  25  81 S14       30.06F WCI  19
SIREN          CLOUDY    31  27  86 S8        30.06F WCI  23
CUMBERLAND     CLOUDY    30  28  93 S10       30.06F FOG     WCI  21
RICE LAKE      CLOUDY    30  29  93 S8        30.09S FOG     WCI  23
CHETEK         CLOUDY    30  28  93 SE6       30.09S FOG     WCI  24
LADYSMITH      CLOUDY    30  29  94 S7        30.10F FOG     WCI  23
EAU CLAIRE     CLOUDY    31  27  85 S8        30.10F FOG     WCI  23
MENOMONIE      CLOUDY    31  30  94 SE6       30.10S FOG     WCI  26
NEW RICHMOND   CLOUDY    31  29  90 SE6       30.07S WCI  25
OSCEOLA        CLOUDY    32  28  86 SE6       30.09F WCI  26
$$

WIZ003>005-009-010-017-018-210800-
NORTH CENTRAL WISCONSIN

CITY           SKY/WX    TMP DP  RH WIND       PRES   REMARKS
MANITOWISH WTR CLOUDY    27  27 100 S7        30.07F FOG     WCI  19
ARBOR VITAE    CLOUDY    29  27  92 S6        30.08F FOG     WCI  23
WOODRUFF       CLOUDY    29  27  92 S6        30.08F FOG     WCI  23
RHINELANDER    CLOUDY    26  24  92 S6        30.10F FOG     WCI  19
EAGLE RIVER    CLOUDY    27  26  98 S3        30.09F FOG
LAND O LAKES   CLOUDY    28  26  95 S3        30.10S
PHILLIPS       CLOUDY    28  26  95 S8        30.08F FOG     WCI  19
TOMAHAWK       LGT SNOW  27  26  94 CALM      30.11F
MEDFORD        CLOUDY    28  26  94 S8        30.10F FOG     WCI  19
MERRILL        LGT SNOW  28  27  96 CALM      30.12S
$$

WIZ029-030-035-036-043>047-210800-
CENTRAL WISCONSIN

CITY           SKY/WX    TMP DP  RH WIND       PRES   REMARKS
WAUSAU         CLOUDY    28  25  88 S6        30.12F WCI  22
MOSINEE        CLOUDY    28  28 100 SE6       30.14F FOG     WCI  22
MARSHFIELD     CLOUDY    29  26  89 S7        30.12F FOG     WCI  22
STEVENS POINT  CLOUDY    27  26  93 S3        30.16S FOG
WAUPACA        CLOUDY    31  28  88 SE3       30.18S FOG
WAUTOMA        CLOUDY    30  28  92 CALM      30.18S FOG
WISC RAPIDS    CLOUDY    29  25  85 S5        30.16F WCI  24
CAMP DOUGLAS   CLOUDY    30  30 100 SE5       30.15S WCI  25
$$

WIZ011>013-019>022-031-037>040-048>050-210800-
NORTHEAST WISCONSIN

CITY           SKY/WX    TMP DP  RH WIND       PRES   REMARKS
ANTIGO         CLOUDY    25  25  98 S7        30.13S FOG     WCI  18
SHAWANO        CLOUDY    30  27  86 CALM      30.18F FOG
OCONTO         CLOUDY    28  27  94 CALM      30.20S
STURGEON BAY   CLOUDY    27  25  93 CALM      30.21S
GREEN BAY      CLOUDY    30  27  88 S5        30.20S FOG     WCI  25
MANITOWOC      CLOUDY    31  28  89 CALM      30.21F
APPLETON       CLOUDY    28  28 100 SE5       30.19S FOG     WCI  23
CLINTONVILLE   CLOUDY    30  28  93 S3        30.18S FOG
OSHKOSH        CLOUDY    30  26  85 S6        30.18F FOG     WCI  24
$$

WIZ032>034-041-042-053>061-210800-
SOUTHWEST WISCONSIN

CITY           SKY/WX    TMP DP  RH WIND       PRES   REMARKS
LA CROSSE      CLOUDY    33  28  81 SE7       30.12F WCI  27
SPARTA         CLOUDY    31  27  87 S6        30.15F FOG     WCI  25
VIROQUA        CLOUDY    29  29 100 SE6       30.12S WCI  23
BOSCOBEL       CLOUDY    32  28  85 CALM      30.16F FOG
PRAIRIE DU CHI CLOUDY    32  30  92 E5        30.14F FOG     WCI  27
PLATTEVILLE    CLOUDY    31  30  95 CALM      30.15F
$$

WIZ056-057-062-063-064-067-068-210800-
SOUTH CENTRAL WISCONSIN

CITY           SKY/WX    TMP DP  RH WIND       PRES   REMARKS
REEDSBURG      CLOUDY    29  27  91 SE5       30.15F FOG     WCI  24
BARABOO/DELLS  CLOUDY    30  26  86 S7        30.16S FOG     WCI  23
LONE ROCK      CLOUDY    34  27  75 E6        30.17F HAZE    WCI  29
MINERAL POINT  CLOUDY    32  30  93 SE7       30.14F FOG     WCI  26
MADISON        CLOUDY    30  26  85 S8        30.18S WCI  22
MIDDLETON      CLOUDY    32  28  86 S5        30.18S WCI  27
WATERTOWN      CLOUDY    30  28  94 S5        30.19S WCI  25
MONROE         CLOUDY    32  30  93 S8        30.16S FOG     WCI  25
JANESVILLE     CLOUDY    32  30  93 S7        30.18F WCI  26
$$

WIZ051-052-058>065-066-070>072-210800-
SOUTHEAST WISCONSIN

CITY           SKY/WX    TMP DP  RH WIND       PRES   REMARKS
MILWAUKEE      CLOUDY    32  25  75 S6        30.22F WCI  26
WAUKESHA       CLOUDY    30  27  86 S5        30.20F WCI  25
MILWAUKEE/TIMM CLOUDY    32  27  80 S5        30.22S WCI  27
RACINE         CLOUDY    32  25  75 S5        30.23F WCI  27
BURLINGTON     CLOUDY    29  26  87 S3        30.21S
KENOSHA        CLOUDY    32  26  78 S5        30.22F WCI  27
FOND DU LAC    CLOUDY    30  26  85 S7        30.19F WCI  23
SHEBOYGAN      CLOUDY    30  26  85 S3        30.20F
WEST BEND      CLOUDY    30  27  86 S3        30.20S
JUNEAU         CLOUDY    29  27  90 SE6       30.20S FOG     WCI  23
$$

LSZ147-162-210800-
LAKE SUPERIOR

STATION/POSITION TIME  TEMP    WIND        PRES    WAVE
                       AIR SEA DIR/SP/G            HT/PER
                 (UTC) (F)     (DEG/KT/KT) (MB)    (FT/S)
DEVILS ISLAND    0700   32     200/  9/ 14 1019.2F
PORT WING        0600   32     190/  8/ 12 1018.6
SAXON HARBOR     0600   33     180/  5/  9 1019.3F
$$

LMZ867-665-643>646-210800-
LAKE MICHIGAN

STATION/POSITION TIME  TEMP    WIND        PRES    WAVE
                       AIR SEA DIR/SP/G            HT/PER
                 (UTC) (F)     (DEG/KT/KT) (MB)    (FT/S)
CHAMBERS ISLAND  0600   28      CALM  /  1 1023.0S
NORTHPORT PIER   0600   30      CALM  /  2 1022.7F
SISTER BAY       0543             CALM       N/A
ALGOMA LAKESHORE 0614             CALM       N/A
KEWAUNEE LAKESHO 0700   30     220/  1/  4 1022.0F
SHEBOYGAN LAKESH 0700   31 34  200/  7/  8 1024.0F
PORT WASHINGTON  0600   32     210/  2/  5 1024.0F
MILWAUKEE LAKESH 0700   33     200/  7/  8   N/A
KENOSHA   LAKESH 0700   33     190/  4/  7 1023.4F
$$

TC  - TEMPERATURE IN CELSIUS
VSB - VISIBILITY IN STATUTE MILES
WCI - WIND CHILL INDEX
HX  - HEAT INDEX




USA.gov is the U.S. government's official web portal to all federal, state and local government web resources and services.